Estación de Nogales

Ultimos registro cada 15 minutos 63
Estación Fecha / Hora Temperatura Humedad Lluvia Velocidad Dirección Radiación Presion
63 Nogales 04-05-2026 15:30 27,4 22,9 0 1,7 164 349,4 981,7
62 Nogales 04-05-2026 15:15 28,1 22,1 0 1 199 483,1 981,8
61 Nogales 04-05-2026 15:00 27,8 21,6 0 1 170 521,9 981,8
60 Nogales 04-05-2026 14:45 28,6 21 0 0,3 107 564,4 982,1
59 Nogales 04-05-2026 14:30 27,5 21,7 0 1 161 564,4 982,2
58 Nogales 04-05-2026 14:15 26,4 22,4 0 1,7 201 625,6 982,4
57 Nogales 04-05-2026 14:00 26,8 22,5 0 1,3 184 645,6 982,6
56 Nogales 04-05-2026 13:45 26 23,5 0 2 180 641,9 982,9
55 Nogales 04-05-2026 13:30 26,5 22,3 0 1,7 152 691,9 983,2
54 Nogales 04-05-2026 13:15 26,5 22,3 0 1,7 157 694,4 983,5
53 Nogales 04-05-2026 13:00 25,7 23,1 0 2,3 170 639,4 983,8
52 Nogales 04-05-2026 12:45 25,3 22,9 0 1,7 175 715,6 984
51 Nogales 04-05-2026 12:30 25,4 23,2 0 1,3 178 689,4 984,3
50 Nogales 04-05-2026 12:15 24,6 23,7 0 1 175 713,1 984,4
49 Nogales 04-05-2026 12:00 24,1 25,7 0 1 194 694,4 984,7
48 Nogales 04-05-2026 11:45 23,4 26,5 0 1 191 704,4 984,7
47 Nogales 04-05-2026 11:30 22,1 27,6 0 0,7 201 694,4 984,9
46 Nogales 04-05-2026 11:15 21,8 28,8 0 0,7 204 646,9 984,9
45 Nogales 04-05-2026 11:00 21 30 0 0,3 233 613,1 985,1
44 Nogales 04-05-2026 10:45 20,7 31,3 0 0 229 589,4 985,3
43 Nogales 04-05-2026 10:30 18,7 35,9 0 0,3 219 498,1 985,6
42 Nogales 04-05-2026 10:15 18,6 36,3 0 0,3 197 493,1 985,6
41 Nogales 04-05-2026 10:00 16,5 38,7 0 0,3 139 505,6 985,8
40 Nogales 04-05-2026 09:45 16,4 41 0 0 88 456,9 985,9
39 Nogales 04-05-2026 09:30 14,3 46,4 0 0 88 96,9 985,9
38 Nogales 04-05-2026 09:15 12,8 52,9 0 0 88 75,6 985,9
37 Nogales 04-05-2026 09:00 11,6 54 0 0 87 74,4 985,8
36 Nogales 04-05-2026 08:45 10 62,9 0 0 87 166,9 985,8
35 Nogales 04-05-2026 08:30 6,2 70,6 0 0 91 209,4 985,7
34 Nogales 04-05-2026 08:15 3,1 76,3 0 0 90 35,6 985,8
33 Nogales 04-05-2026 08:00 2,4 76,5 0 0 90 20,6 985,6
32 Nogales 04-05-2026 07:45 2,2 75,8 0 0 340 10,6 985,5
31 Nogales 04-05-2026 07:30 3 75,3 0 0,3 333 5,6 985,4
30 Nogales 04-05-2026 07:15 2,6 75,9 0 0,3 333 0,6 985,2
29 Nogales 04-05-2026 07:00 2,3 77,2 0 0 333 0,6 985,4
28 Nogales 04-05-2026 06:45 1,6 76,2 0 0 333 0,6 985,2
27 Nogales 04-05-2026 06:30 2,1 75,4 0 0 333 0,6 985,1
26 Nogales 04-05-2026 06:15 2,1 74,6 0 0 333 0,6 985,1
25 Nogales 04-05-2026 06:00 2,9 74,5 0 0,3 333 0,6 985
24 Nogales 04-05-2026 05:45 2,7 74,4 0 0 333 0,6 985,1
23 Nogales 04-05-2026 05:30 3 73,4 0 0 333 0,6 985
22 Nogales 04-05-2026 05:15 2,9 74,6 0 0 333 0,6 985
21 Nogales 04-05-2026 05:00 2,6 72,9 0 0 333 0,6 984,8
20 Nogales 04-05-2026 04:45 3,3 71,5 0 0 333 0,6 984,9
19 Nogales 04-05-2026 04:30 4,3 71,6 0 0,3 331 0,6 984,9
18 Nogales 04-05-2026 04:15 3,6 72,9 0 0 331 0,6 984,9
17 Nogales 04-05-2026 04:00 3 71,4 0 0 331 0,6 984,9
16 Nogales 04-05-2026 03:45 3,3 70,5 0 0 331 0,6 985,1
15 Nogales 04-05-2026 03:30 3,7 69,5 0 0 331 0,6 985,1
14 Nogales 04-05-2026 03:15 4 69,4 0 0 331 0,6 985,3
13 Nogales 04-05-2026 03:00 3,8 69,1 0 0 331 0,6 985,4
12 Nogales 04-05-2026 02:45 4,5 67,4 0 0 331 0,6 985,3
11 Nogales 04-05-2026 02:30 4,9 68,3 0 0 331 0,6 985,4
10 Nogales 04-05-2026 02:15 4,5 68,2 0 0 331 0,6 985,7
9 Nogales 04-05-2026 02:00 4,2 67,7 0 0 331 0,6 986
8 Nogales 04-05-2026 01:45 4,9 65,4 0 0 331 0,6 986,2
7 Nogales 04-05-2026 01:30 5,7 63,8 0 0 331 0,6 986,2
6 Nogales 04-05-2026 01:15 5,6 66,3 0 0,3 310 0,6 986,3
5 Nogales 04-05-2026 01:00 5,4 65,3 0 0 209 0,6 986,4
4 Nogales 04-05-2026 00:45 5,1 64,9 0 0 209 0,6 986,2
3 Nogales 04-05-2026 00:30 5,6 63,9 0 0 209 0,6 986,1
2 Nogales 04-05-2026 00:15 6 64,2 0 0 209 0,6 986,1
1 Nogales 04-05-2026 00:00 5,5 64,3 0 0 209 0,6 986,1